When you browse on this site, cookies collect data to enhance your experience and personalize the content and advertising you see.
Visit our Privacy Policy to learn more. By continuing to use the site, you agree to this use of cookies and data.
  • En España
  • Lista de países
  • Para 7 días
  • Temperatura del agua
  • Mapa Satelital
  • El tiempo en el mapa
  • Informadores
  • user-avatar
    Iniciar sesión

    Tiempo cada hora Oruro

    Hoy, 18 Enero, Viernes

    Tiempo Temperatura Precipitaciones Viento Presión Humedad
    00:00 +8°C° 0 mm 6 mps 477 mmHg 56%
    01:00 +8°C° 0 mm 6 mps 476 mmHg 59%
    02:00 +7°C° 0 mm 5 mps 476 mmHg 62%
    03:00 +7°C° 0 mm 5 mps 476 mmHg 64%
    04:00 +7°C° 0 mm 4 mps 476 mmHg 66%
    05:00 +6°C° 0 mm 4 mps 476 mmHg 69%
    06:00 +7°C° 0 mm 4 mps 476 mmHg 66%
    07:00 +7°C° 0 mm 4 mps 477 mmHg 63%
    08:00 +8°C° 0 mm 4 mps 478 mmHg 60%
    09:00 +10°C° 0 mm 4 mps 479 mmHg 54%
    10:00 +12°C° 0 mm 4 mps 479 mmHg 48%
    11:00 +13°C° 0 mm 5 mps 480 mmHg 42%
    12:00 +14°C° 0 mm 5 mps 480 mmHg 38%
    13:00 +15°C° 0 mm 5 mps 481 mmHg 35%
    14:00 +16°C° 0 mm 6 mps 481 mmHg 32%
    15:00 +16°C° 0 mm 6 mps 480 mmHg 32%
    16:00 +16°C° 0 mm 6 mps 480 mmHg 33%
    17:00 +16°C° 0 mm 7 mps 480 mmHg 34%
    18:00 +14°C° 0 mm 7 mps 479 mmHg 40%
    19:00 +11°C° 0 mm 7 mps 478 mmHg 47%
    20:00 +10°C° 0 mm 8 mps 477 mmHg 54%
    21:00 +9°C° 0 mm 7 mps 477 mmHg 55%
    22:00 +8°C° 0 mm 6 mps 477 mmHg 57%
    23:00 +8°C° 0 mm 6 mps 477 mmHg 58%

    Mañana, 19 Enero, Sábado

    Tiempo Temperatura Precipitaciones Viento Presión Humedad
    00:00 +7°C° 0 mm 5 mps 477 mmHg 61%
    01:00 +7°C° 0 mm 4 mps 476 mmHg 63%
    02:00 +6°C° 0 mm 4 mps 476 mmHg 65%
    03:00 +7°C° 0 mm 3 mps 476 mmHg 66%
    04:00 +7°C° 0 mm 3 mps 476 mmHg 67%
    05:00 +7°C° 0 mm 2 mps 476 mmHg 68%
    06:00 +7°C° 0 mm 2 mps 476 mmHg 66%
    07:00 +8°C° 0 mm 2 mps 477 mmHg 64%
    08:00 +8°C° 0 mm 3 mps 478 mmHg 62%
    09:00 +10°C° 0 mm 3 mps 479 mmHg 55%
    10:00 +12°C° 0 mm 3 mps 480 mmHg 48%
    11:00 +13°C° 0 mm 4 mps 481 mmHg 42%
    12:00 +14°C° 0 mm 4 mps 481 mmHg 40%
    13:00 +15°C° 0 mm 4 mps 480 mmHg 38%
    14:00 +17°C° 0 mm 4 mps 480 mmHg 35%
    15:00 +17°C° 0 mm 4 mps 480 mmHg 36%
    16:00 +17°C° 0 mm 3 mps 479 mmHg 37%
    17:00 +16°C° 0 mm 3 mps 479 mmHg 37%
    18:00 +14°C° 0.1 mm 4 mps 478 mmHg 42%
    19:00 +13°C° 0.1 mm 6 mps 478 mmHg 47%
    20:00 +11°C° 0.1 mm 7 mps 478 mmHg 51%
    21:00 +10°C° 0 mm 7 mps 478 mmHg 55%
    22:00 +9°C° 0 mm 7 mps 478 mmHg 58%
    23:00 +8°C° 0 mm 6 mps 478 mmHg 62%

    Pasado mañana, 20 Enero, Domingo

    Tiempo Temperatura Precipitaciones Viento Presión Humedad
    00:00 +8°C° 0 mm 6 mps 477 mmHg 63%
    01:00 +7°C° 0 mm 6 mps 477 mmHg 64%
    02:00 +7°C° 0 mm 5 mps 476 mmHg 65%
    03:00 +7°C° 0 mm 5 mps 476 mmHg 66%
    04:00 +6°C° 0 mm 4 mps 476 mmHg 66%
    05:00 +7°C° 0 mm 3 mps 476 mmHg 67%
    06:00 +8°C° 0 mm 3 mps 476 mmHg 64%
    07:00 +8°C° 0 mm 3 mps 477 mmHg 61%
    08:00 +9°C° 0 mm 3 mps 478 mmHg 58%
    09:00 +11°C° 0 mm 3 mps 479 mmHg 52%
    10:00 +13°C° 0 mm 3 mps 480 mmHg 46%
    11:00 +14°C° 0 mm 3 mps 481 mmHg 40%
    12:00 +16°C° 0 mm 3 mps 481 mmHg 37%
    13:00 +17°C° 0 mm 3 mps 480 mmHg 35%
    14:00 +18°C° 0 mm 3 mps 480 mmHg 32%
    15:00 +18°C° 0 mm 3 mps 480 mmHg 32%
    16:00 +18°C° 0 mm 3 mps 479 mmHg 33%
    17:00 +18°C° 0 mm 4 mps 479 mmHg 33%
    18:00 +16°C° 0 mm 5 mps 479 mmHg 39%
    19:00 +14°C° 0 mm 6 mps 478 mmHg 45%
    20:00 +12°C° 0 mm 7 mps 478 mmHg 51%
    21:00 +11°C° 0 mm 7 mps 478 mmHg 54%
    22:00 +10°C° 0 mm 7 mps 478 mmHg 58%
    23:00 +9°C° 0 mm 6 mps 477 mmHg 61%

    21 Enero, Lunes

    Tiempo Temperatura Precipitaciones Viento Presión Humedad
    00:00 +8°C° 0 mm 5 mps 477 mmHg 63%
    01:00 +8°C° 0 mm 4 mps 476 mmHg 65%
    02:00 +8°C° 0 mm 3 mps 476 mmHg 67%
    03:00 +8°C° 0 mm 3 mps 476 mmHg 68%
    04:00 +8°C° 0 mm 2 mps 475 mmHg 69%
    05:00 +8°C° 0 mm 1 mps 475 mmHg 71%
    06:00 +9°C° 0 mm 1 mps 476 mmHg 65%
    07:00 +9°C° 0 mm 2 mps 477 mmHg 60%
    08:00 +10°C° 0 mm 2 mps 478 mmHg 55%
    09:00 +13°C° 0 mm 2 mps 479 mmHg 48%
    10:00 +15°C° 0 mm 2 mps 480 mmHg 41%
    11:00 +16°C° 0 mm 2 mps 481 mmHg 34%
    12:00 +18°C° 0 mm 3 mps 481 mmHg 29%
    13:00 +19°C° 0 mm 4 mps 482 mmHg 25%
    14:00 +20°C° 0 mm 5 mps 482 mmHg 21%
    15:00 +20°C° 0 mm 6 mps 481 mmHg 23%
    16:00 +20°C° 0 mm 6 mps 481 mmHg 24%
    17:00 +20°C° 0 mm 7 mps 480 mmHg 26%
    18:00 +17°C° 0 mm 8 mps 479 mmHg 34%
    19:00 +15°C° 0 mm 8 mps 479 mmHg 41%
    20:00 +12°C° 0 mm 9 mps 478 mmHg 48%
    21:00 +11°C° 0 mm 8 mps 478 mmHg 52%
    22:00 +10°C° 0 mm 8 mps 478 mmHg 57%
    23:00 +9°C° 0 mm 8 mps 478 mmHg 61%

    22 Enero, Martes

    Tiempo Temperatura Precipitaciones Viento Presión Humedad
    00:00 +9°C° 0 mm 7 mps 478 mmHg 63%
    01:00 +8°C° 0 mm 6 mps 477 mmHg 64%
    02:00 +8°C° 0 mm 5 mps 477 mmHg 66%
    03:00 +7°C° 0 mm 4 mps 476 mmHg 68%
    04:00 +8°C° 0 mm 3 mps 476 mmHg 69%
    05:00 +7°C° 0 mm 3 mps 476 mmHg 71%
    06:00 +8°C° 0 mm 3 mps 477 mmHg 68%
    07:00 +9°C° 0 mm 3 mps 477 mmHg 65%
    08:00 +9°C° 0 mm 3 mps 478 mmHg 63%
    09:00 +11°C° 0 mm 3 mps 479 mmHg 56%
    10:00 +12°C° 0 mm 3 mps 480 mmHg 50%
    11:00 +14°C° 0 mm 3 mps 480 mmHg 43%
    12:00 +16°C° 0.3 mm 3 mps 480 mmHg 42%
    13:00 +15°C° 0.3 mm 4 mps 480 mmHg 41%
    14:00 +17°C° 0.3 mm 4 mps 480 mmHg 39%
    15:00 +16°C° 0.1 mm 5 mps 479 mmHg 39%
    16:00 +17°C° 0.1 mm 5 mps 479 mmHg 39%
    17:00 +17°C° 0.1 mm 5 mps 479 mmHg 39%
    18:00 +15°C° 0 mm 6 mps 478 mmHg 44%
    19:00 +14°C° 0 mm 6 mps 478 mmHg 49%
    20:00 +11°C° 0 mm 7 mps 477 mmHg 55%
    21:00 +10°C° 0 mm 6 mps 477 mmHg 57%
    22:00 +10°C° 0 mm 6 mps 477 mmHg 59%
    23:00 +9°C° 0 mm 5 mps 477 mmHg 60%

    23 Enero, Miércoles

    Tiempo Temperatura Precipitaciones Viento Presión Humedad
    00:00 +8°C° 0 mm 5 mps 477 mmHg 63%
    01:00 +8°C° 0 mm 4 mps 476 mmHg 65%
    02:00 +9°C° 0 mm 3 mps 476 mmHg 67%
    03:00 +8°C° 0 mm 3 mps 476 mmHg 69%
    04:00 +8°C° 0 mm 3 mps 476 mmHg 71%
    05:00 +8°C° 0 mm 2 mps 476 mmHg 73%
    06:00 +8°C° 0 mm 2 mps 476 mmHg 70%
    07:00 +9°C° 0 mm 2 mps 477 mmHg 66%
    08:00 +10°C° 0 mm 2 mps 478 mmHg 63%
    09:00 +12°C° 0 mm 3 mps 479 mmHg 56%
    10:00 +14°C° 0 mm 3 mps 480 mmHg 49%
    11:00 +15°C° 0 mm 4 mps 481 mmHg 42%
    12:00 +17°C° 0.1 mm 4 mps 481 mmHg 39%
    13:00 +17°C° 0.1 mm 5 mps 480 mmHg 37%
    14:00 +19°C° 0.1 mm 5 mps 480 mmHg 34%
    15:00 +19°C° 0 mm 5 mps 480 mmHg 35%
    16:00 +17°C° 0 mm 5 mps 480 mmHg 35%
    17:00 +17°C° 0 mm 5 mps 479 mmHg 36%
    18:00 +16°C° 0.1 mm 6 mps 479 mmHg 42%
    19:00 +14°C° 0.1 mm 6 mps 478 mmHg 47%
    20:00 +13°C° 0.1 mm 6 mps 477 mmHg 53%
    21:00 +11°C° 0 mm 6 mps 477 mmHg 54%
    22:00 +11°C° 0 mm 6 mps 478 mmHg 55%
    23:00 +10°C° 0 mm 6 mps 478 mmHg 56%
    Mostrar más